• In Hungary
  • List of Countries
  • For 7 days
  • Water Temperature
  • Satellite Maps
  • Weather Map
  • News
  • Weather Widgets
  • user-avatar
    Login

    Hourly Weather Tachov

    Today, 13 December, Wednesday

    Time Temperature Precipitation Wind Pressure Humidity
    00:00 -4°C° 0 mm 3 mps 715 mmHg 92%
    01:00 -3°C° 0 mm 2 mps 715 mmHg 94%
    02:00 -3°C° 0 mm 2 mps 715 mmHg 94%
    03:00 -5°C° 0 mm 3 mps 715 mmHg 94%
    04:00 -5°C° 0 mm 3 mps 715 mmHg 93%
    05:00 -5°C° 0 mm 3 mps 715 mmHg 93%
    06:00 -5°C° 0 mm 3 mps 715 mmHg 93%
    07:00 -4°C° 0 mm 2 mps 715 mmHg 93%
    08:00 -4°C° 0 mm 3 mps 714 mmHg 90%
    09:00 -2°C° 0 mm 3 mps 714 mmHg 87%
    10:00 -3°C° 0 mm 4 mps 714 mmHg 84%
    11:00 -2°C° 0 mm 4 mps 713 mmHg 81%
    12:00 -1°C° 0 mm 5 mps 712 mmHg 78%
    13:00 -1°C° 0 mm 4 mps 711 mmHg 74%
    14:00 -1°C° 0 mm 4 mps 710 mmHg 77%
    15:00 -2°C° 0 mm 4 mps 709 mmHg 79%
    16:00 -3°C° 0 mm 4 mps 708 mmHg 82%
    17:00 -3°C° 0 mm 4 mps 708 mmHg 79%
    18:00 -3°C° 0 mm 4 mps 707 mmHg 76%
    19:00 -4°C° 0 mm 5 mps 706 mmHg 73%
    20:00 -2°C° 0.3 mm 5 mps 705 mmHg 75%
    21:00 -3°C° 0.3 mm 6 mps 704 mmHg 78%
    22:00 -2°C° 0.3 mm 7 mps 703 mmHg 81%
    23:00 -2°C° 0.5 mm 6 mps 702 mmHg 81%

    Tomorrow, 14 December, Thursday

    Time Temperature Precipitation Wind Pressure Humidity
    00:00 -2°C° 0.5 mm 6 mps 701 mmHg 81%
    01:00 -2°C° 0.5 mm 6 mps 700 mmHg 81%
    02:00 -1°C° 1.2 mm 6 mps 699 mmHg 82%
    03:00 -1°C° 1.2 mm 7 mps 699 mmHg 83%
    04:00 -1°C° 1.2 mm 8 mps 699 mmHg 84%
    05:00 -1°C° 0.4 mm 7 mps 699 mmHg 86%
    06:00 -1°C° 0.4 mm 6 mps 699 mmHg 87%
    07:00 0°C° 0.4 mm 5 mps 700 mmHg 89%
    08:00 -1°C° 0.5 mm 7 mps 700 mmHg 85%
    09:00 -1°C° 0.5 mm 8 mps 700 mmHg 80%
    10:00 -2°C° 0.5 mm 10 mps 701 mmHg 76%
    11:00 -1°C° 0.1 mm 9 mps 702 mmHg 75%
    12:00 -1°C° 0.1 mm 9 mps 702 mmHg 75%
    13:00 -1°C° 0.1 mm 8 mps 703 mmHg 74%
    14:00 -2°C° 0 mm 7 mps 703 mmHg 76%
    15:00 -2°C° 0 mm 6 mps 703 mmHg 79%
    16:00 -1°C° 0 mm 5 mps 703 mmHg 81%
    17:00 -1°C° 0.2 mm 5 mps 703 mmHg 82%
    18:00 -1°C° 0.2 mm 5 mps 702 mmHg 83%
    19:00 -2°C° 0.2 mm 6 mps 702 mmHg 84%
    20:00 -2°C° 0.1 mm 6 mps 701 mmHg 85%
    21:00 -1°C° 0.1 mm 5 mps 700 mmHg 86%
    22:00 -1°C° 0.1 mm 5 mps 700 mmHg 86%
    23:00 -1°C° 0.5 mm 5 mps 699 mmHg 87%

    Day after tomorrow, 15 December, Friday

    Time Temperature Precipitation Wind Pressure Humidity
    00:00 -1°C° 0.5 mm 5 mps 699 mmHg 87%
    01:00 0°C° 0.5 mm 5 mps 698 mmHg 88%
    02:00 0°C° 0.9 mm 5 mps 698 mmHg 90%
    03:00 -1°C° 0.9 mm 4 mps 699 mmHg 92%
    04:00 0°C° 0.9 mm 3 mps 699 mmHg 94%
    05:00 0°C° 0.5 mm 3 mps 699 mmHg 93%
    06:00 -2°C° 0.5 mm 4 mps 700 mmHg 93%
    07:00 -2°C° 0.5 mm 4 mps 701 mmHg 92%
    08:00 -2°C° 0.2 mm 4 mps 701 mmHg 90%
    09:00 -2°C° 0.2 mm 5 mps 702 mmHg 89%
    10:00 -2°C° 0.2 mm 5 mps 703 mmHg 88%
    11:00 -1°C° 0.1 mm 5 mps 703 mmHg 87%
    12:00 -1°C° 0.1 mm 5 mps 703 mmHg 87%
    13:00 -1°C° 0.1 mm 4 mps 703 mmHg 86%
    14:00 -1°C° 0.1 mm 4 mps 703 mmHg 88%
    15:00 -1°C° 0.1 mm 3 mps 703 mmHg 89%
    16:00 -1°C° 0.1 mm 3 mps 703 mmHg 91%
    17:00 -1°C° 0 mm 3 mps 703 mmHg 91%
    18:00 -1°C° 0 mm 3 mps 703 mmHg 91%
    19:00 -2°C° 0 mm 4 mps 704 mmHg 91%
    20:00 -2°C° 0.1 mm 4 mps 704 mmHg 92%
    21:00 -2°C° 0.1 mm 4 mps 704 mmHg 92%
    22:00 -2°C° 0.1 mm 4 mps 704 mmHg 92%
    23:00 -2°C° 0 mm 4 mps 705 mmHg 92%

    16 December, Saturday

    Time Temperature Precipitation Wind Pressure Humidity
    00:00 -1°C° 0 mm 3 mps 705 mmHg 92%
    01:00 -2°C° 0 mm 3 mps 705 mmHg 92%
    02:00 -2°C° 0 mm 3 mps 705 mmHg 93%
    03:00 -2°C° 0 mm 3 mps 706 mmHg 94%
    04:00 -2°C° 0 mm 3 mps 706 mmHg 95%
    05:00 -2°C° 0.1 mm 3 mps 706 mmHg 95%
    06:00 -2°C° 0.1 mm 3 mps 707 mmHg 94%
    07:00 -2°C° 0.1 mm 3 mps 707 mmHg 94%
    08:00 -2°C° 0 mm 3 mps 708 mmHg 93%
    09:00 -2°C° 0 mm 3 mps 708 mmHg 92%
    10:00 -1°C° 0 mm 3 mps 709 mmHg 92%
    11:00 -2°C° 0 mm 4 mps 709 mmHg 91%
    12:00 -2°C° 0 mm 4 mps 709 mmHg 90%
    13:00 -2°C° 0 mm 4 mps 710 mmHg 89%
    14:00 -2°C° 0.1 mm 4 mps 710 mmHg 89%
    15:00 -2°C° 0.1 mm 4 mps 711 mmHg 89%
    16:00 -3°C° 0.1 mm 4 mps 711 mmHg 89%
    17:00 -3°C° 0.1 mm 4 mps 711 mmHg 89%
    18:00 -2°C° 0.1 mm 3 mps 712 mmHg 90%
    19:00 -2°C° 0.1 mm 3 mps 712 mmHg 90%
    20:00 -2°C° 0 mm 3 mps 713 mmHg 91%
    21:00 -4°C° 0 mm 3 mps 713 mmHg 92%
    22:00 -4°C° 0 mm 3 mps 714 mmHg 93%
    23:00 -4°C° 0 mm 4 mps 714 mmHg 93%

    17 December, Sunday

    Time Temperature Precipitation Wind Pressure Humidity
    00:00 -4°C° 0 mm 4 mps 714 mmHg 93%
    01:00 -4°C° 0 mm 4 mps 715 mmHg 92%
    02:00 -4°C° 0 mm 4 mps 715 mmHg 92%
    03:00 -4°C° 0 mm 4 mps 715 mmHg 92%
    04:00 -4°C° 0 mm 4 mps 716 mmHg 92%
    05:00 -4°C° 0.1 mm 4 mps 716 mmHg 92%
    06:00 -4°C° 0.1 mm 4 mps 716 mmHg 92%
    07:00 -4°C° 0.1 mm 3 mps 717 mmHg 92%
    08:00 -4°C° 0.1 mm 4 mps 717 mmHg 92%
    09:00 -4°C° 0.1 mm 4 mps 718 mmHg 91%
    10:00 -4°C° 0.1 mm 4 mps 719 mmHg 91%
    11:00 -3°C° 0.1 mm 4 mps 719 mmHg 90%
    12:00 -3°C° 0.1 mm 4 mps 719 mmHg 88%
    13:00 -3°C° 0.1 mm 4 mps 719 mmHg 87%
    14:00 -3°C° 0.1 mm 4 mps 719 mmHg 88%
    15:00 -2°C° 0.1 mm 3 mps 720 mmHg 89%
    16:00 -2°C° 0.1 mm 3 mps 720 mmHg 89%
    17:00 -4°C° 0 mm 3 mps 720 mmHg 91%
    18:00 -4°C° 0 mm 3 mps 721 mmHg 92%
    19:00 -3°C° 0 mm 2 mps 721 mmHg 93%
    20:00 -4°C° 0 mm 3 mps 721 mmHg 94%
    21:00 -4°C° 0 mm 3 mps 722 mmHg 94%
    22:00 -4°C° 0 mm 3 mps 722 mmHg 94%
    23:00 -4°C° 0 mm 3 mps 722 mmHg 94%

    18 December, Monday

    Time Temperature Precipitation Wind Pressure Humidity
    00:00 -4°C° 0 mm 3 mps 722 mmHg 94%
    01:00 -4°C° 0 mm 3 mps 722 mmHg 94%
    02:00 -4°C° 0.1 mm 3 mps 722 mmHg 93%
    03:00 -4°C° 0.1 mm 3 mps 722 mmHg 93%
    04:00 -4°C° 0.1 mm 3 mps 722 mmHg 93%
    05:00 -4°C° 0.1 mm 3 mps 722 mmHg 92%
    06:00 -4°C° 0.1 mm 4 mps 722 mmHg 92%
    07:00 -4°C° 0.1 mm 4 mps 722 mmHg 92%
    08:00 -4°C° 0.4 mm 4 mps 721 mmHg 92%
    09:00 -4°C° 0.4 mm 5 mps 721 mmHg 92%
    10:00 -4°C° 0.4 mm 5 mps 721 mmHg 91%
    11:00 -4°C° 1.1 mm 6 mps 720 mmHg 92%
    12:00 -4°C° 1.1 mm 6 mps 719 mmHg 92%
    13:00 -4°C° 1.1 mm 6 mps 718 mmHg 93%
    14:00 -3°C° 1.1 mm 6 mps 718 mmHg 93%
    15:00 -3°C° 1.1 mm 6 mps 718 mmHg 93%
    16:00 -1°C° 1.1 mm 5 mps 717 mmHg 93%
    17:00 -1°C° 0.4 mm 5 mps 717 mmHg 94%
    18:00 -1°C° 0.4 mm 4 mps 718 mmHg 95%
    19:00 -1°C° 0.4 mm 4 mps 718 mmHg 97%
    20:00 0°C° 0.1 mm 3 mps 718 mmHg 97%
    21:00 +1°C° 0.1 mm 2 mps 719 mmHg 98%
    22:00 +1°C° 0.1 mm 2 mps 719 mmHg 98%
    23:00 +1°C° 0.1 mm 2 mps 720 mmHg 98%
    Show more